Weather History for Farmington, MO

Change the Weather History Date:

Wednesday, March 21, 2012

  Actual Average Record
Temperature  
Mean Temperature 70 °F -  
Max Temperature 75 °F 55 °F 86 °F (1997)
Min Temperature 66 °F 34 °F 17 °F (2013)
Cooling Degree Days 6    
Growing Degree Days 20 (Base 50)    
Moisture  
Dew Point 54 °F    
Average Humidity 55    
Maximum Humidity 64    
Minimum Humidity 47    
Precipitation  
Precipitation 0.00 in - - ()
Sea Level Pressure  
Sea Level Pressure 29.97 in    
Wind  
Wind Speed 12 mph (SSE)    
Max Wind Speed 26 mph    
Max Gust Speed 33 mph    
Visibility 10 miles    
Events      
Averages and records for this station are not official NWS values.
T = Trace of Precipitation, MM = Missing Value Source: NWS Daily Summary

Daily Weather History Graph

Daily Weather History Graph

Search for Another Location

Airport:

Trip Planner

Search our weather history database for the weather conditions in past years. The results will help you decide how hot, cold, wet, or windy it might be!

Date:

Astronomy

Mar. 21, 2012 Rise Set
Actual Time 7:02 AM CDT 7:15 PM CDT
Civil Twilight 6:36 AM CDT 7:41 PM CDT
Nautical Twilight 6:06 AM CDT 8:11 PM CDT
Astronomical Twilight 5:35 AM CDT 8:43 PM CDT
Moon 6:13 AM CDT (3/21) 6:41 PM CDT (3/21)
Length of Visible Light 13h 04m
Length of Day
12h 12m
Waning Crescent, 1% of the Moon is Illuminated
Mar 21
Waning Crescent
Mar 22
New
Mar 30
First Quarter
Apr 6
Full
Apr 13
Last Quarter

Hourly Weather History & Observations

Time (CDT) Temp. Dew Point Humidity Pressure Visibility Wind Dir Wind Speed Gust Speed Precip Events Conditions
12:15 AM 71.6 °F 51.8 °F 50% 29.97 in 10.0 mi SE 6.9 mph - N/A   Overcast
12:35 AM 71.6 °F 51.8 °F 50% 29.97 in 10.0 mi SSE 8.1 mph - N/A   Overcast
12:55 AM 69.8 °F 51.8 °F 53% 29.97 in 10.0 mi SE 6.9 mph - N/A   Overcast
1:35 AM 69.8 °F 51.8 °F 53% 29.96 in 10.0 mi SE 9.2 mph - N/A   Mostly Cloudy
1:55 AM 69.8 °F 51.8 °F 53% 29.96 in 10.0 mi SE 9.2 mph - N/A   Scattered Clouds
2:15 AM 69.8 °F 51.8 °F 53% 29.96 in 10.0 mi SE 9.2 mph - N/A   Overcast
2:35 AM 69.8 °F 51.8 °F 53% 29.96 in 10.0 mi SE 10.4 mph - N/A   Mostly Cloudy
2:55 AM 68.0 °F 51.8 °F 56% 29.96 in 10.0 mi SE 10.4 mph - N/A   Partly Cloudy
3:15 AM 68.0 °F 51.8 °F 56% 29.96 in 10.0 mi SSE 9.2 mph - N/A   Clear
3:35 AM 68.0 °F 51.8 °F 56% 29.95 in 10.0 mi SE 10.4 mph - N/A   Clear
3:55 AM 68.0 °F 51.8 °F 56% 29.95 in 10.0 mi SSE 8.1 mph - N/A   Clear
4:15 AM 66.2 °F 53.6 °F 64% 29.95 in 10.0 mi SSE 10.4 mph - N/A   Clear
4:35 AM 66.2 °F 53.6 °F 64% 29.96 in 10.0 mi SSE 8.1 mph - N/A   Clear
4:55 AM 66.2 °F 53.6 °F 64% 29.97 in 10.0 mi SSE 8.1 mph - N/A   Clear
5:15 AM 66.2 °F 53.6 °F 64% 29.98 in 10.0 mi SSE 8.1 mph - N/A   Clear
5:35 AM 66.2 °F 53.6 °F 64% 29.98 in 10.0 mi SSE 9.2 mph - N/A   Clear
5:55 AM 66.2 °F 53.6 °F 64% 29.99 in 10.0 mi SSE 10.4 mph - N/A   Clear
6:15 AM 66.2 °F 53.6 °F 64% 29.99 in 10.0 mi SE 10.4 mph - N/A   Clear
6:35 AM 66.2 °F 53.6 °F 64% 30.00 in 10.0 mi SE 10.4 mph - N/A   Clear
6:55 AM 66.2 °F 53.6 °F 64% 30.00 in 10.0 mi SE 11.5 mph 16.1 mph N/A   Clear
7:35 AM 66.2 °F 53.6 °F 64% 30.01 in 10.0 mi SE 12.7 mph 17.3 mph N/A   Clear
7:55 AM 66.2 °F 53.6 °F 64% 30.01 in 10.0 mi SSE 10.4 mph 17.3 mph N/A   Clear
8:15 AM 68.0 °F 53.6 °F 60% 30.02 in 10.0 mi SSE 13.8 mph 19.6 mph N/A   Clear
8:35 AM 69.8 °F 53.6 °F 56% 30.02 in 10.0 mi SSE 13.8 mph 23.0 mph N/A   Clear
8:55 AM 69.8 °F 53.6 °F 56% 30.02 in 10.0 mi SSE 12.7 mph 21.9 mph N/A   Clear
9:15 AM 68.0 °F 53.6 °F 60% 30.03 in 10.0 mi SSE 13.8 mph 19.6 mph N/A   Clear
9:35 AM 69.8 °F 53.6 °F 56% 30.03 in 10.0 mi SSE 11.5 mph - N/A   Clear
9:55 AM 69.8 °F 53.6 °F 56% 30.02 in 10.0 mi SSE 12.7 mph - N/A   Clear
10:15 AM 71.6 °F 53.6 °F 53% 30.02 in 10.0 mi SSE 16.1 mph 24.2 mph N/A   Clear
10:35 AM 71.6 °F 53.6 °F 53% 30.02 in 10.0 mi SSE 20.7 mph 25.3 mph N/A   Clear
10:55 AM 71.6 °F 53.6 °F 53% 30.01 in 10.0 mi SSE 21.9 mph 27.6 mph N/A   Clear
11:15 AM 71.6 °F 53.6 °F 53% 30.01 in 10.0 mi SSE 20.7 mph 33.4 mph N/A   Clear
11:35 AM 73.4 °F 53.6 °F 50% 30.01 in 10.0 mi SSE 20.7 mph 28.8 mph N/A   Clear
11:55 AM 73.4 °F 53.6 °F 50% 30.00 in 10.0 mi South 23.0 mph 31.1 mph N/A   Clear
12:15 PM 73.4 °F 53.6 °F 50% 30.00 in 10.0 mi South 26.5 mph 31.1 mph N/A   Partly Cloudy
12:35 PM 75.2 °F 53.6 °F 47% 30.01 in 10.0 mi SSE 18.4 mph 31.1 mph N/A   Partly Cloudy
12:55 PM 73.4 °F 53.6 °F 50% 30.00 in 10.0 mi South 21.9 mph 29.9 mph N/A   Scattered Clouds
1:15 PM 75.2 °F 53.6 °F 47% 30.00 in 10.0 mi SSE 23.0 mph 29.9 mph N/A   Scattered Clouds
1:35 PM 75.2 °F 53.6 °F 47% 29.99 in 10.0 mi South 26.5 mph 32.2 mph N/A   Partly Cloudy
1:55 PM 75.2 °F 53.6 °F 47% 29.99 in 10.0 mi South 23.0 mph 33.4 mph N/A   Scattered Clouds
2:15 PM 73.4 °F 55.4 °F 53% 29.98 in 10.0 mi SSE 19.6 mph 31.1 mph N/A   Partly Cloudy
2:35 PM 75.2 °F 53.6 °F 47% 29.97 in 10.0 mi SSE 18.4 mph 29.9 mph N/A   Partly Cloudy
2:55 PM 75.2 °F 53.6 °F 47% 29.96 in 10.0 mi SSE 19.6 mph 27.6 mph N/A   Partly Cloudy
3:15 PM 73.4 °F 53.6 °F 50% 29.96 in 10.0 mi SSE 17.3 mph 29.9 mph N/A   Partly Cloudy
3:35 PM 73.4 °F 53.6 °F 50% 29.96 in 10.0 mi SSE 13.8 mph 24.2 mph N/A   Scattered Clouds
3:55 PM 73.4 °F 53.6 °F 50% 29.95 in 10.0 mi SSE 20.7 mph 26.5 mph N/A   Mostly Cloudy
4:15 PM 73.4 °F 53.6 °F 50% 29.95 in 10.0 mi SSE 12.7 mph 23.0 mph N/A   Mostly Cloudy
4:35 PM 73.4 °F 55.4 °F 53% 29.94 in 10.0 mi SE 18.4 mph 25.3 mph N/A   Mostly Cloudy
4:55 PM 73.4 °F 55.4 °F 53% 29.93 in 10.0 mi SE 13.8 mph 26.5 mph N/A   Scattered Clouds
5:15 PM 73.4 °F 55.4 °F 53% 29.93 in 10.0 mi SSE 15.0 mph 21.9 mph N/A   Scattered Clouds
5:35 PM 73.4 °F 55.4 °F 53% 29.94 in 10.0 mi SE 18.4 mph 25.3 mph N/A   Mostly Cloudy
5:55 PM 73.4 °F 55.4 °F 53% 29.94 in 10.0 mi SSE 15.0 mph 19.6 mph N/A   Overcast
6:15 PM 73.4 °F 55.4 °F 53% 29.93 in 10.0 mi SE 13.8 mph 19.6 mph N/A   Overcast
6:35 PM 71.6 °F 55.4 °F 57% 29.93 in 10.0 mi South 10.4 mph 17.3 mph N/A   Overcast
6:55 PM 71.6 °F 57.2 °F 60% 29.93 in 10.0 mi South 8.1 mph - N/A   Overcast
7:15 PM 69.8 °F 57.2 °F 64% 29.92 in 10.0 mi SE 4.6 mph - N/A   Mostly Cloudy
7:35 PM 69.8 °F 55.4 °F 60% 29.92 in 10.0 mi SSE 9.2 mph - N/A   Mostly Cloudy
7:55 PM 71.6 °F 55.4 °F 57% 29.93 in 10.0 mi SE 13.8 mph 18.4 mph N/A   Overcast
8:15 PM 71.6 °F 55.4 °F 57% 29.94 in 10.0 mi SE 11.5 mph 16.1 mph N/A   Overcast
8:35 PM 71.6 °F 55.4 °F 57% 29.94 in 10.0 mi SE 11.5 mph 18.4 mph N/A   Overcast
8:55 PM 71.6 °F 55.4 °F 57% 29.93 in 10.0 mi SE 15.0 mph 19.6 mph N/A   Overcast
9:15 PM 71.6 °F 55.4 °F 57% 29.93 in 10.0 mi SE 15.0 mph 19.6 mph N/A   Overcast
9:35 PM 71.6 °F 55.4 °F 57% 29.93 in 10.0 mi SE 15.0 mph 24.2 mph N/A   Overcast
9:55 PM 71.6 °F 55.4 °F 57% 29.94 in 10.0 mi SE 19.6 mph 24.2 mph N/A   Overcast
10:15 PM 69.8 °F 57.2 °F 64% 29.94 in 10.0 mi SE 11.5 mph 19.6 mph N/A   Overcast
10:35 PM 71.6 °F 57.2 °F 60% 29.94 in 10.0 mi SSE 16.1 mph 21.9 mph N/A   Overcast
10:55 PM 71.6 °F 57.2 °F 60% 29.95 in 10.0 mi SSE 11.5 mph 25.3 mph N/A   Overcast
11:15 PM 71.6 °F 57.2 °F 60% 29.96 in 10.0 mi SSE 17.3 mph 25.3 mph N/A   Overcast
11:35 PM 71.6 °F 57.2 °F 60% 29.97 in 10.0 mi South 16.1 mph 24.2 mph N/A   Overcast
11:55 PM 71.6 °F 57.2 °F 60% 29.97 in 10.0 mi SSE 15.0 mph 24.2 mph N/A   Overcast